{"data":{"norad_id":64940,"epoch":"2026-05-25T02:30:59.204160Z","epoch_age_seconds":56066,"freshness":"FRESH","line1":"1 64940U 25158J   26145.10485190  .00003420  00000+0  24621-3 0  9996","line2":"2 64940  97.4531   9.3666 0001709  81.8548 278.2872 15.04845591 46878","mean_motion":15.04845591,"eccentricity":0.0001709,"inclination_deg":97.4531,"raan_deg":9.3666,"arg_perigee_deg":81.8548,"mean_anomaly_deg":278.2872,"bstar":0.00024621,"rev_number":4687,"period_min":95.690880752961,"perigee_km":550.79534102278,"apogee_km":553.16405491015,"semimajor_km":6930.1166979665,"source":"CELESTRAK","updated_at":"2026-05-25T13:38:20.631001Z"}}